Location: Bijele Vode
(45.2833°N, 16.2000°E)
Time: 04:14:14
(UTC+00:00)

Cosmos 1125 Rocket - Pass Details

Date: 26 January 2021
Orbit: 757 x 781 km, 74.0° (Epoch: 05 March)

Event Time Altitude Azimuth Distance (km) Brightness Sun altitude
Rises 18:34:02 0° 192° (SSW) 3,207 6.9 -28.1°
Reaches altitude 10° 18:36:23 10° 190° (S) 2,288 6.0 -28.5°
Enters shadow 18:37:53 20° 188° (S) 1,726 5.3 -28.7°
